Regional Weather Roundup
Issued by NWS

Home | Current Version | Previous Version | Graphics & Text | Print | Product List | Glossary Off
Versions: 1 2 3 4 5 6 7 8 9 10 11 12 13 14 15 16 17 18 19 20 21 22 23 24 25 26 27 28 29 30 31 32 33 34 35 36 37 38 39 40 41 42 43 44 45 46 47 48 49 50

000
ASUS43 KTOP 040159
RWRKS

WEATHER ROUNDUP FOR KANSAS
NATIONAL WEATHER SERVICE GOODLAND KS
800 PM CST SAT DEC 03 2016

NOTE:  "FAIR" INDICATES FEW OR NO CLOUDS BELOW 12,000 FEET WITH NO
SIGNIFICANT WEATHER AND/OR OBSTRUCTIONS TO VISIBILITY.

KSZ001>006-013>018-027>032-041>047-040300-
NORTHWEST KANSAS

CITY           SKY/WX    TMP DP  RH WIND       PRES   REMARKS
GOODLAND       CLEAR     28  26  92 S10       29.99R WCI  19
HAYS           LGT RAIN  33  32  96 N3        30.07S FOG
HILL CITY      CLOUDY    32  31  96 SW5       30.06S FOG
RUSSELL        RAIN      36  36 100 CALM      30.06R FOG
$$

KSZ061>065-074>080-084>089-040300-
SOUTHWEST KANSAS

CITY           SKY/WX    TMP DP  RH WIND       PRES   REMARKS
DODGE CITY     LGT RAIN  38  38 100 CALM      30.04R FOG
ELKHART          N/A     35  29  79 SE6         N/A
GARDEN CITY    LGT RAIN  36  35  96 CALM      30.02R
GREAT BEND     LGT RAIN  39  39 100 SE3       30.06S FOG
LIBERAL        CLOUDY    39  36  87 CALM      30.02R
$$

KSZ066>073-081>083-090>101-040300-
SOUTHEAST KANSAS

CITY           SKY/WX    TMP DP  RH WIND       PRES   REMARKS
CHANUTE        CLOUDY    45  40  82 SE9       30.11S
COFFEYVILLE    CLOUDY    45  43  93 E7        30.12S
HUTCHINSON     LGT RAIN  41  40  96 SE6       30.08S
MEDICINE LODGE   N/A     40  39  97 SE7       30.06F
NEWTON         LGT RAIN  39  38  96 E6        30.09F
PARSONS        CLOUDY    46  41  82 E5        30.12S
WICHITA INTL   LGT RAIN  42  40  92 E6        30.08F
WICHITA JABRA  LGT RAIN  41  40  96 CALM      30.08F
WINFIELD       CLOUDY    42  41  96 NE5       30.10S FOG
$$

KSZ007>012-019>026-033>040-048>060-102>105-040300-
NORTHEAST KANSAS

CITY           SKY/WX    TMP DP  RH WIND       PRES   REMARKS
CONCORDIA      LGT RAIN  36  36 100 S6        30.08S FOG
EMPORIA        CLOUDY    43  37  79 E3        30.10F
LAWRENCE       CLOUDY    44  34  67 E5        30.12S
MANHATTAN      LGT RAIN  40  38  93 CALM      30.10F FOG
OLATHE IND     CLOUDY    45  33  63 SE8       30.12S
OLATHE EXE     CLOUDY    44  32  62 SE7       30.12S
SALINA         LGT RAIN  40  39  97 SE6       30.09S FOG
TOPEKA BILLARD CLOUDY    42  37  82 CALM      30.12R
TOPEKA FORBES  LGT RAIN  44  38  79 CALM      30.11S
$$



USA.gov is the U.S. government's official web portal to all federal, state and local government web resources and services.